Location: Unspecified
(0.0000°N, 0.0000°E)
Time: 07:18:47
(UTC+00:00)

Freja - Pass Details

Date: 02 June 2024
Orbit: 548 x 1731 km, 63.0° (Epoch: 13 June)

Event Time Altitude Azimuth Distance (km) Brightness Sun altitude
Rises 05:14:43 0° 166° (SSE) 4,814 9.5 -10.0°
Reaches altitude 10° 05:19:54 10° 144° (SE) 3,959 9.3 -8.8°
Maximum altitude 05:24:52 15° 115° (ESE) 3,657 9.6 -7.7°
Drops below altitude 10° 05:29:51 10° 86° (E) 4,008 10.6 -6.5°
Sets 05:35:03 0° 64° (ENE) 4,916 12.5 -5.3°
